"Pseudo-MPEC" for P10Ilef

Created 2018 Jul 14 14:18:21 UT using Find_Orb

Click here for an explanation of pseudo-MPECs

 
 Astrometry: 
     P10Ilef  C2018 06 17tgAstrometry]t=V96?/'lBhQlehpTYdlpWfF==Ak^$eV[YlThM^F51
     P10Ilef  C2018 06 17oh6;SX1a7uS-S?TJ6O;OT[+i:Qw\Yx@(f0DthU[Y+5A^.ObE$Wt2F51
     P10Ilef  C2018 06 178Y!,dyBCw=='J7JYs)d.Jpyd;XBij4FugyqdP4jmpn+@(X#l@(I6F51
     P10Ilef  C2018 06 17[3R9/u^DR*ss)j]YY(OP1IXC%c.Nj;,]K[Ao3KB,.2DAELHtV3w5F51
     P10Ilef  C2018 07 11W$n@2BtV]:.b5WO;y\Ifk1,9`bL]Q];E$(gx^%YRguBEJ]x``dfQF51
     P10Ilef  C2018 07 11PrD65KM@.iffq-e/fredacted;xTM^ywAQ^'p$3FQ16@\=`E`L11F51
     P10Ilef  C2018 07 114PAN]TUu-Sp9kQ/Id/PEtf[1#aC4us/PF*WAld7+/i:3-#g7b$C5F51
     P10Ilef KC2018 07 11A*20`?Vbf:s-,8yk!B_4)bAddE)a4$kG4K-T[I@Pv'64(jHgXR*ZJ04
     P10Ilef KC2018 07 11MnxrQ9,V+-D0:xlcrv:T2(Z:r]\Qifep4h@WNP6tMPMsnyo.S'6hJ04
     P10Ilef KC2018 07 11vc%2nHRYfQ`,/h6K$1RU^K#7tek!YR8dsee2`l$\wdC,RY2Wjf(jJ04
     P10Ilef KC2018 07 12C@d.e@cDL(\6:BR`i^d2Dpk0'6OGsj87R#X!^x]u8Y'S3pkQ(iN)734
     P10Ilef KC2018 07 12d)+\Ou9(xKx0v7+hKfA8]fj?Vlm0OW9Z:;0i.lgZDAj@3Ob8o^PR734
     P10Ilef KC2018 07 12J@rZ2?jw)vkx`Z-,!gPw1J0:3H/qxAsh_-F!*PRON8c[yeO3TL'g734
     P10Ilef |C2018 07 14N7^-Yyu59(\:g2l:_ZP^ERg;@AgGbo8FOEZO@oB#Q6j=]`XB@bZ?807
     P10Ilef |C2018 07 14:!ZZw!\_pt`Ft@On5qqAaa^DHpfhXbMB-SDC8nxnlrC`.nXNEOCP807

Station data:
(734) Farpoint Observatory, Eskridge  (N38.890107 W96.001400)  US/Kansas.
   Observer G. Hug. .3 meter s-c + CCD.
(807) Cerro Tololo Observatory, La Serena  (S30.169136 W70.805900)  Chile.
   1.5-m Ritchey-Chrétien.
(F51) Pan-STARRS 1, Haleakala  (N20.707235 W156.255910)  US/Hawaii.
   Observers N. Primak, A. Schultz, S. Watters, J. Thiel, T. Goggia. Measurer
   PS1 Science Consortium. 1.8-m Ritchey-Chrétien + CCD.
(J04) ESA Optical Ground Station, Tenerife  (N28.300924 W16.511830)  Canary
   Islands (Spain).  Observer D. Abreu. Measurers M. Micheli, D. Koschny, E.
   Schwab, M. Busch, A. Knöfel. 1.0-m f/4.4 reflector + CCD.

Orbital elements:  P10Ilef
   Perihelion 2018 Jul 6.147909 +/- 0.00364 TT =  3:32:59 (JD 2458305.647909)
Epoch 2018 Jul 14.0 TT = JDT 2458313.5   Earth MOID: 0.1882   AutoNEOCP
M   1.79245 +/- 0.006               (J2000 ecliptic)
n   0.22827719 +/- 0.000695         Peri.  169.30295 +/- 0.0032
a   2.65151669 +/- 0.00538          Node   105.50085 +/- 0.007
e   0.5471554 +/- 0.000843          Incl.   17.02733 +/- 0.014
P   4.32                   H 22.2   G  0.15   U  7.9  
q 1.20072483 +/- 0.000199    Q 4.10230856 +/- 0.0105
From 15 observations 2018 June 17-July 14; mean residual 0".27
Residuals in arcseconds: 
180617 F51  .05+  .09-    180711 F51  .04+  .20-    180712 734  .29+  .13-    
180617 F51  .04-  .07-    180711 F51  .07+  .46-    180712 734  .28-  .59+    
180617 F51  .01-  .04+    180711 J04  .55-  .30+    180712 734  .36+  .32-    
180617 F51  .01+  .12+    180711 J04  .37-  .28+    180714 807  .10-  .04+    
180711 F51  .04+  .15-    180711 J04  .30+  .59+    180714 807  .10+  .12-    

Ephemerides (geocentric):
Date (UTC) HH   RA              Dec         delta   r     elong  mag " sig PA
---- -- -- --  -------------   -----------  ------ ------ -----  --- ---- ---
2018 07 14 14  16 11 49.683   -17 08 34.92  .25743 1.2047 132.2 21.2  .36  76
2018 07 14 15  16 11 55.992   -17 12 07.83  .25749 1.2047 132.2 21.2  .37  76
2018 07 14 16  16 12 02.311   -17 15 40.66  .25754 1.2048 132.2 21.2  .38  76
2018 07 14 17  16 12 08.638   -17 19 13.42  .25760 1.2048 132.2 21.2  .38  76
2018 07 14 18  16 12 14.976   -17 22 46.10  .25766 1.2049 132.2 21.2  .39  76
2018 07 14 19  16 12 21.322   -17 26 18.70  .25772 1.2049 132.2 21.2  .40  76
2018 07 14 20  16 12 27.678   -17 29 51.22  .25777 1.2049 132.2 21.2  .40  76
2018 07 14 21  16 12 34.044   -17 33 23.65  .25783 1.2050 132.2 21.2  .41  76
2018 07 14 22  16 12 40.419   -17 36 56.01  .25789 1.2050 132.2 21.2  .42  76
2018 07 14 23  16 12 46.803   -17 40 28.29  .25795 1.2051 132.2 21.3  .43  76
2018 07 15 00  16 12 53.197   -17 44 00.48  .25801 1.2051 132.2 21.3  .43  76
2018 07 15 01  16 12 59.600   -17 47 32.59  .25807 1.2052 132.2 21.3  .44  76
2018 07 15 02  16 13 06.013   -17 51 04.61  .25813 1.2052 132.2 21.3  .45  76
2018 07 15 03  16 13 12.435   -17 54 36.55  .25819 1.2052 132.2 21.3  .45  76
2018 07 15 04  16 13 18.866   -17 58 08.40  .25825 1.2053 132.2 21.3  .46  76
2018 07 15 05  16 13 25.307   -18 01 40.17  .25831 1.2053 132.2 21.3  .47  76
2018 07 15 06  16 13 31.757   -18 05 11.85  .25838 1.2054 132.2 21.3  .48  76
2018 07 15 07  16 13 38.217   -18 08 43.44  .25844 1.2054 132.2 21.3  .48  76
2018 07 15 08  16 13 44.686   -18 12 14.94  .25850 1.2054 132.2 21.3  .49  76
2018 07 15 09  16 13 51.165   -18 15 46.35  .25856 1.2055 132.2 21.3  .50  76
2018 07 15 10  16 13 57.653   -18 19 17.67  .25863 1.2055 132.2 21.3  .51  76
2018 07 15 11  16 14 04.150   -18 22 48.90  .25869 1.2056 132.2 21.3  .51  76
2018 07 15 12  16 14 10.657   -18 26 20.04  .25876 1.2056 132.2 21.3  .52  76
2018 07 15 13  16 14 17.174   -18 29 51.09  .25882 1.2057 132.2 21.3  .53  76
2018 07 15 14  16 14 23.700   -18 33 22.04  .25889 1.2057 132.2 21.3  .54  76
2018 07 15 15  16 14 30.235   -18 36 52.90  .25895 1.2058 132.2 21.3  .54  76
2018 07 15 16  16 14 36.780   -18 40 23.66  .25902 1.2058 132.2 21.3  .55  75
2018 07 15 17  16 14 43.334   -18 43 54.33  .25908 1.2058 132.2 21.3  .56  75
2018 07 15 18  16 14 49.897   -18 47 24.90  .25915 1.2059 132.2 21.3  .57  75
2018 07 15 19  16 14 56.470   -18 50 55.37  .25922 1.2059 132.2 21.3  .57  75
2018 07 15 20  16 15 03.053   -18 54 25.75  .25928 1.2060 132.2 21.3  .58  75
2018 07 15 21  16 15 09.645   -18 57 56.03  .25935 1.2060 132.2 21.3  .59  75
2018 07 15 22  16 15 16.246   -19 01 26.20  .25942 1.2061 132.2 21.3  .60  75
2018 07 15 23  16 15 22.857   -19 04 56.28  .25949 1.2061 132.2 21.3  .60  75
2018 07 16 00  16 15 29.477   -19 08 26.26  .25956 1.2062 132.2 21.3  .61  75
2018 07 16 01  16 15 36.107   -19 11 56.14  .25963 1.2062 132.2 21.3  .62  75
2018 07 16 02  16 15 42.746   -19 15 25.91  .25970 1.2062 132.2 21.3  .63  75
2018 07 16 03  16 15 49.394   -19 18 55.58  .25977 1.2063 132.2 21.3  .64  75
2018 07 16 04  16 15 56.052   -19 22 25.15  .25984 1.2063 132.2 21.3  .64  75
2018 07 16 05  16 16 02.720   -19 25 54.61  .25991 1.2064 132.2 21.3  .65  75
2018 07 16 06  16 16 09.397   -19 29 23.97  .25998 1.2064 132.2 21.3  .66  75
2018 07 16 07  16 16 16.083   -19 32 53.22  .26005 1.2065 132.2 21.3  .67  75
2018 07 16 08  16 16 22.779   -19 36 22.36  .26012 1.2065 132.2 21.3  .67  75
2018 07 16 09  16 16 29.484   -19 39 51.40  .26019 1.2066 132.2 21.3  .68  75
2018 07 16 10  16 16 36.199   -19 43 20.33  .26027 1.2066 132.2 21.3  .69  75
2018 07 16 11  16 16 42.923   -19 46 49.15  .26034 1.2067 132.2 21.3  .70  75
2018 07 16 12  16 16 49.657   -19 50 17.86  .26041 1.2067 132.1 21.3  .71  75
2018 07 16 13  16 16 56.400   -19 53 46.46  .26049 1.2068 132.1 21.3  .71  75